Vertical_Velocity
5 -2 2 4 2 -4 5 -1 8 18 -5 4 18 32 7 2 2 -1 -1 -2 2 -2 -1 -0 -4 1 -2 -1 -2 -2 -2 -3 -1 -3 -1 -5 -2 -4 -3 -0 -0 0 -0 -6
-2 1 4 4 -2 6 -1 -6 -10 13 1 -1 12 7 1 2 7 3 2 2 1 -3 -1 0 -3 -1 -0 -1 -2 -1 -3 -4 -2 -1 -5 -2 -4 -4 -5 -0 -3 -3 -4 -9
2 8 4 0 6 -3 -5 -2 3 6 10 0 -2 10 9 6 -1 -0 -1 3 1 0 1 0 -1 -1 0 -0 -1 -2 -2 -3 -2 0 -3 -4 -6 -0 -2 0 -4 -2 -3 -8
3 5 2 5 -2 11 38 2 2 2 20 9 -2 1 1 7 8 6 2 -1 2 -2 -4 -4 -1 -2 -2 0 -0 -2 -1 -4 1 4 -0 -5 -3 3 1 2 -2 -2 -1 -4
6 1 4 2 -1 3 -12 -1 -4 12 5 -2 3 -1 -2 5 8 -7 26 -3 -2 4 -8 5 -1 -1 -1 1 0 -0 -1 -2 -3 2 4 5 -2 -2 3 4 -0 -1 2 -6
-2 7 1 1 -0 -3 -2 1 -0 3 9 5 -2 -0 4 -4 -2 8 -2 2 2 -2 -1 5 4 -4 -2 -3 -1 -2 -3 -1 -1 3 7 -5 -3 -8 2 -2 4 -5 -0 1
3 -1 1 -2 -1 5 10 1 -1 10 9 12 -1 -12 -12 -10 -5 -2 5 0 7 -1 -1 3 5 5 -1 -3 -1 -2 -1 -2 1 2 3 -2 -9 2 -4 3 8 4 4 1
-2 -6 3 3 -0 11 -4 0 5 5 7 10 -8 -4 1 -11 -7 1 -6 -3 -0 -2 -3 7 -3 -1 -9 -2 -1 -0 -3 -0 0 4 2 -2 1 -3 -0 4 2 15 6 0
3 -8 0 -4 5 -1 2 -5 6 -0 4 15 4 34 13 7 -5 -15 -6 -0 2 -5 6 4 -1 -5 1 -1 -3 4 -2 1 -1 -0 4 2 2 -4 1 3 4 2 -9 5
1 1 5 -3 -6 -1 -11 13 -2 -8 4 1 2 -13 62 5 -1 -5 -3 -3 -8 -1 4 -1 -5 -3 -0 -1 -0 3 -0 3 1 -1 -1 2 1 -2 1 1 1 -3 -1 -0
-8 -5 22 -0 -6 1 2 -4 -7 6 2 -12 -2 10 19 11 29 1 1 1 -2 0 2 -3 2 9 6 -1 3 4 -0 -1 0 1 -2 -1 -1 -3 -7 -1 3 5 6 -11
9 -6 1 7 -2 -4 -2 -0 -1 -3 3 0 35 2 -6 -0 25 -6 4 6 0 -3 -3 2 -2 3 6 -8 -0 8 4 -1 -1 -1 1 -1 -0 -2 -2 -4 -3 6 6 8
-9 3 4 -2 13 8 -1 5 1 4 5 -1 5 -0 -7 -6 -14 -4 -19 -6 1 -2 -4 1 0 9 2 2 11 9 -11 18 24 -13 4 1 -3 -3 -2 -2 -1 -1 5 6
2 2 -1 -14 -2 2 -6 -8 -3 4 -3 -3 -3 -3 1 -10 -2 0 -1 -10 4 -8 -2 7 -3 9 1 -6 16 -4 -8 11 52 -3 1 -0 -11 -2 -4 -2 -4 -3 -2 -1
-0 2 -7 -3 0 -4 2 -7 -2 -6 -6 -9 16 1 -27 1 -19 -4 -1 1 -0 3 2 5 -12 4 5 37 15 7 1 -5 -3 5 5 -2 1 -1 -1 -1 -1 -1 -2 0
3 1 -5 0 1 1 8 2 2 2 -6 -8 -5 53 -24 66 -1 10 17 0 8 3 7 5 -9 3 14 8 5 5 4 1 1 -3 -2 -1 -1 -2 2 8 6 -1 -1 -0
4 -9 -5 -1 30 -14 -7 16 2 27 23 18 14 -6 -7 -13 -14 101 15 5 3 4 9 4 6 6 13 8 7 1 2 -1 -1 -4 -2 -3 -3 -1 -7 -3 5 19 2 2
-8 -0 -2 4 -8 4 -30 -12 -5 -11 -0 18 8 -23 -13 2 7 1 -22 -17 -5 -8 10 10 8 -0 -2 2 -1 2 -1 -2 -6 -5 -0 -3 -2 -1 -3 -2 0 1 3 1
3 5 3 -13 -4 8 -12 -1 1 -3 16 -6 -6 -15 -4 -6 -1 -2 -8 -11 3 16 5 -4 2 2 -2 -9 -2 -5 -4 -4 -1 -0 -1 -1 -4 -4 -3 -2 2 -1 -3 3
9 -8 3 0 1 11 9 8 9 8 -23 -10 -5 -5 0 14 4 10 2 -8 4 -8 10 1 -6 -3 1 -6 -1 -3 8 -3 6 -3 -4 -1 -1 -3 -1 -1 -1 -1 6 -3
10 3 5 1 -5 6 3 -8 -5 3 -21 -0 -6 1 -6 -0 19 69 2 3 2 6 6 -0 5 -3 1 6 -6 -3 2 1 -1 -4 -1 -1 -2 -0 1 0 2 -0 -1 0
-1 -25 19 -1 -11 -19 13 10 19 7 12 13 -6 -2 31 -8 32 -8 -7 -9 -0 5 -1 -6 2 -4 -6 1 -1 2 0 3 -2 -4 -1 -3 -2 -1 -0 -2 -1 -0 2 -1
4 -9 -5 25 40 9 -8 11 -10 -9 -18 -2 -4 7 39 7 -16 5 17 -1 10 2 5 3 -1 0 -0 3 0 -1 2 2 3 -4 -2 1 2 -4 -1 -4 -6 -4 -2 1
-3 -4 -9 6 7 -5 1 -3 6 -1 -8 -2 -8 -15 -21 5 -9 5 1 3 4 -2 -6 2 -1 3 -1 2 2 4 2 1 -3 -10 3 1 -2 -1 1 2 0 5 0 -5
-10 3 -1 2 -12 1 -2 -4 2 2 -4 -1 -3 -5 -6 5 -3 -1 -2 -1 4 2 -1 2 4 1 0 -2 -0 1 -2 -2 -1 0 1 -4 3 -4 2 2 1 -4 5 1
-6 -3 -3 -2 -3 1 -9 5 -5 -6 -1 -6 -0 4 -4 2 7 2 4 5 -5 -0 3 -0 -0 1 1 1 0 0 3 3 -0 7 9 7 9 5 6 5 3 3 -3 3
Height
5843 5847 5852 5860 5866 5869 5871 5870 5868 5868 5870 5873 5874 5874 5881 5887 5891 5896 5899 5902 5907 5908 5911 5914 5917 5919 5920 5921 5922 5922 5923 5924 5926 5927 5928 5929 5930 5931 5932 5934 5935 5937 5937 5937
5839 5843 5852 5859 5864 5860 5868 5865 5866 5866 5869 5870 5872 5874 5879 5883 5887 5892 5896 5900 5905 5907 5909 5913 5916 5920 5922 5923 5924 5924 5924 5925 5927 5928 5929 5931 5932 5933 5935 5936 5937 5939 5938 5939
5836 5844 5851 5854 5856 5864 5863 5865 5868 5867 5866 5866 5868 5869 5874 5876 5881 5886 5890 5897 5901 5907 5909 5911 5915 5919 5922 5924 5925 5926 5926 5927 5927 5929 5932 5932 5934 5936 5937 5939 5940 5943 5942 5942
5834 5841 5846 5851 5855 5858 5866 5861 5863 5861 5862 5862 5865 5866 5868 5871 5874 5879 5885 5892 5898 5903 5906 5909 5913 5916 5920 5923 5925 5927 5928 5928 5929 5931 5933 5935 5936 5938 5940 5941 5943 5944 5944 5944
5832 5837 5843 5848 5856 5856 5854 5856 5859 5858 5863 5862 5862 5866 5866 5869 5872 5871 5880 5888 5895 5898 5902 5908 5910 5914 5919 5922 5925 5927 5929 5930 5931 5933 5934 5934 5935 5935 5938 5943 5944 5946 5946 5946
5830 5838 5840 5845 5849 5857 5850 5853 5857 5859 5859 5861 5862 5865 5867 5869 5869 5872 5878 5886 5892 5896 5901 5906 5908 5911 5915 5920 5923 5926 5928 5930 5932 5935 5934 5936 5936 5936 5937 5940 5944 5946 5947 5947
5829 5831 5835 5839 5847 5852 5849 5854 5857 5860 5862 5861 5861 5865 5866 5868 5870 5871 5880 5885 5889 5894 5898 5903 5905 5911 5914 5917 5922 5923 5927 5930 5932 5935 5934 5935 5936 5937 5935 5940 5946 5947 5947 5948
5829 5833 5836 5841 5845 5849 5850 5854 5858 5860 5860 5860 5859 5861 5867 5866 5872 5877 5880 5884 5885 5887 5894 5896 5902 5907 5909 5913 5918 5922 5924 5929 5932 5934 5936 5934 5934 5935 5938 5941 5945 5948 5945 5944
5828 5833 5834 5835 5842 5847 5848 5851 5858 5859 5855 5858 5860 5853 5861 5865 5868 5871 5876 5878 5883 5887 5889 5895 5900 5903 5906 5908 5913 5920 5922 5927 5931 5933 5936 5938 5936 5937 5941 5944 5944 5944 5946 5945
5823 5828 5833 5832 5835 5840 5846 5852 5856 5855 5857 5858 5858 5854 5849 5859 5863 5867 5873 5877 5878 5880 5884 5890 5896 5900 5903 5906 5911 5917 5920 5926 5929 5932 5933 5936 5937 5936 5939 5942 5946 5944 5945 5944
5816 5823 5833 5831 5831 5837 5841 5845 5850 5857 5859 5857 5858 5858 5860 5861 5857 5864 5870 5875 5879 5883 5885 5888 5892 5896 5899 5901 5907 5912 5915 5919 5924 5929 5931 5933 5935 5935 5935 5938 5942 5941 5940 5940
5819 5822 5827 5830 5833 5833 5836 5842 5847 5852 5858 5860 5858 5859 5858 5858 5856 5858 5865 5872 5879 5881 5883 5889 5890 5893 5897 5896 5903 5907 5914 5918 5923 5923 5926 5929 5932 5934 5935 5934 5935 5941 5939 5940
5809 5815 5822 5827 5831 5832 5833 5837 5844 5848 5853 5856 5858 5854 5854 5858 5861 5862 5864 5867 5874 5878 5881 5886 5887 5889 5895 5894 5895 5902 5909 5909 5907 5915 5921 5925 5930 5930 5932 5934 5934 5936 5940 5943
5807 5812 5817 5817 5822 5824 5825 5831 5839 5845 5848 5853 5858 5854 5855 5856 5860 5864 5867 5869 5872 5878 5879 5882 5879 5885 5884 5880 5891 5895 5906 5903 5898 5910 5915 5919 5920 5923 5926 5929 5931 5933 5934 5936
5803 5808 5811 5814 5816 5819 5822 5824 5830 5838 5844 5850 5858 5850 5850 5851 5855 5861 5865 5865 5868 5875 5875 5877 5879 5879 5886 5881 5887 5891 5895 5899 5903 5907 5910 5912 5915 5917 5919 5922 5924 5927 5930 5932
5799 5803 5807 5807 5812 5814 5820 5821 5824 5832 5839 5844 5848 5849 5844 5837 5842 5847 5854 5856 5863 5867 5869 5873 5874 5878 5880 5884 5885 5887 5891 5892 5895 5899 5902 5905 5909 5911 5912 5916 5918 5920 5922 5924
5795 5797 5799 5803 5810 5807 5814 5817 5817 5828 5838 5840 5841 5833 5834 5838 5837 5827 5837 5850 5856 5858 5865 5869 5873 5874 5875 5875 5877 5881 5884 5887 5890 5892 5895 5897 5900 5904 5907 5908 5909 5910 5913 5916
5791 5793 5795 5798 5801 5805 5800 5807 5809 5808 5810 5821 5820 5822 5832 5832 5829 5834 5838 5848 5855 5858 5856 5861 5862 5865 5868 5869 5871 5876 5878 5880 5882 5885 5888 5890 5892 5895 5899 5901 5903 5906 5906 5909
5788 5788 5791 5789 5793 5797 5797 5803 5805 5806 5814 5809 5814 5824 5823 5822 5824 5829 5834 5841 5847 5849 5854 5854 5858 5858 5860 5864 5866 5868 5872 5874 5877 5880 5883 5884 5886 5887 5891 5894 5896 5897 5899 5902
5784 5782 5786 5786 5787 5785 5787 5792 5797 5803 5804 5807 5807 5811 5814 5815 5825 5830 5824 5831 5838 5842 5846 5849 5851 5854 5856 5859 5861 5863 5866 5868 5871 5871 5877 5878 5881 5883 5885 5888 5890 5891 5892 5891
5779 5780 5781 5782 5781 5781 5784 5788 5790 5793 5798 5801 5807 5808 5802 5795 5812 5801 5815 5822 5828 5833 5836 5840 5843 5846 5849 5851 5854 5857 5859 5864 5866 5867 5870 5873 5875 5877 5878 5880 5881 5883 5883 5883
5776 5776 5779 5778 5777 5778 5781 5780 5780 5785 5786 5791 5799 5807 5803 5797 5800 5803 5811 5818 5823 5826 5830 5832 5835 5838 5842 5845 5848 5850 5854 5855 5859 5862 5864 5867 5868 5870 5873 5874 5875 5877 5878 5878
5774 5775 5775 5770 5762 5771 5773 5773 5772 5775 5781 5784 5789 5790 5776 5787 5790 5796 5803 5810 5814 5816 5818 5822 5825 5828 5832 5836 5839 5842 5845 5848 5851 5855 5857 5859 5861 5863 5865 5866 5869 5871 5873 5873
5767 5770 5772 5771 5764 5766 5769 5768 5771 5771 5774 5775 5777 5779 5778 5784 5786 5791 5794 5799 5803 5806 5809 5812 5816 5819 5823 5826 5828 5832 5834 5838 5842 5845 5849 5851 5854 5856 5857 5858 5862 5863 5863 5864
5764 5765 5765 5765 5763 5764 5764 5763 5764 5766 5767 5769 5770 5770 5770 5776 5779 5782 5788 5792 5794 5795 5798 5802 5805 5809 5812 5814 5817 5820 5823 5826 5830 5834 5837 5841 5844 5845 5847 5850 5850 5853 5854 5856
5760 5760 5759 5758 5758 5758 5758 5760 5758 5758 5760 5763 5764 5765 5762 5767 5769 5772 5776 5779 5784 5786 5788 5792 5795 5797 5800 5803 5805 5808 5812 5815 5818 5822 5823 5828 5830 5833 5836 5838 5840 5842 5844 5846